Change the Weather History Date:

Sunday, January 26, 2014

  Actual Average Record
Temperature  
Mean Temperature 36 °F 30 °F  
Max Temperature 54 °F 43 °F 60 °F (2015)
Min Temperature 18 °F 16 °F -12 °F (1979)
Degree Days  
Heating Degree Days 29 35  
Month to date heating degree days 746 917  
Since 1 July heating degree days 3704 4100  
Cooling Degree Days 0 0  
Month to date cooling degree days 0 0  
Year to date cooling degree days 0 0  
Moisture  
Dew Point 16 °F    
Average Humidity 49    
Maximum Humidity 77    
Minimum Humidity 20    
Precipitation  
Precipitation 0.00 in - 2.42 in (1969)
Month to date precipitation 0.17  
Year to date precipitation 0.17  
Sea Level Pressure  
Sea Level Pressure 30.22 in    
Wind  
Wind Speed 3 mph (South)    
Max Wind Speed 12 mph    
Max Gust Speed 16 mph    
Visibility 10 miles    
Events      
T = Trace of Precipitation, MM = Missing Value Source: NWS Daily Summary

Daily Weather History Graph

Daily Weather History Graph

Search for Another Location

Airport or City:

Trip Planner

Search our weather history database for the weather conditions in past years. The results will help you decide how hot, cold, wet, or windy it might be!

Date:

Astronomy

Jan. 26, 2014 Rise Set
Actual Time 7:10 AM PST 5:14 PM PST
Civil Twilight 6:42 AM PST 5:43 PM PST
Nautical Twilight 6:10 AM PST 6:15 PM PST
Astronomical Twilight 5:38 AM PST 6:46 PM PST
Moon 2:53 AM PST (1/26) 1:08 PM PST (1/26)
Length of Visible Light 11h 00m
Length of Day
10h 03m
Waning Crescent, 23% of the Moon is Illuminated
Jan 26
Waning Crescent
Jan 30
New
Feb 6
First Quarter
Feb 14
Full
Feb 22
Last Quarter

Hourly Weather History & Observations

Time (PST) Temp. Windchill Dew Point Humidity Pressure Visibility Wind Dir Wind Speed Gust Speed Precip Events Conditions
12:53 AM 24.1 °F - 17.1 °F 75% 30.24 in 10.0 mi Calm Calm - N/A   Clear
1:53 AM 23.0 °F 17.0 °F 16.0 °F 74% 30.24 in 10.0 mi South 4.6 mph - N/A   Clear
2:53 AM 21.0 °F 13.4 °F 15.1 °F 78% 30.25 in 10.0 mi South 5.8 mph - N/A   Clear
3:53 AM 21.0 °F 14.6 °F 15.1 °F 78% 30.25 in 10.0 mi South 4.6 mph - N/A   Clear
4:53 AM 19.9 °F 14.9 °F 14.0 °F 78% 30.26 in 10.0 mi South 3.5 mph - N/A   Clear
5:53 AM 19.0 °F 13.9 °F 12.9 °F 77% 30.30 in 10.0 mi SSW 3.5 mph - N/A   Clear
6:53 AM 19.0 °F - 12.0 °F 74% 30.32 in 10.0 mi Calm Calm - N/A   Clear
7:53 AM 19.0 °F - 12.9 °F 77% 30.33 in 10.0 mi Calm Calm - N/A   Clear
8:53 AM 26.1 °F 21.9 °F 18.0 °F 71% 30.30 in 10.0 mi South 3.5 mph - N/A   Clear
9:53 AM 35.1 °F 32.2 °F 19.9 °F 54% 30.27 in 10.0 mi SSE 3.5 mph - N/A   Clear
10:53 AM 45.0 °F 43.5 °F 14.0 °F 29% 30.23 in 10.0 mi ESE 3.5 mph - N/A   Clear
11:53 AM 50.0 °F - 19.9 °F 31% 30.19 in 10.0 mi North - - N/A   Clear
12:53 PM 51.1 °F - 18.0 °F 27% 30.16 in 10.0 mi Calm Calm - N/A   Clear
1:53 PM 54.0 °F - 14.0 °F 21% 30.12 in 10.0 mi NNE 5.8 mph - N/A   Clear
2:53 PM 53.1 °F - 16.0 °F 23% 30.11 in 10.0 mi NNE 8.1 mph - N/A   Clear
3:53 PM 50.0 °F - 17.1 °F 27% 30.12 in 10.0 mi Variable 4.6 mph - N/A   Clear
4:53 PM 44.1 °F - 17.1 °F 34% 30.15 in 10.0 mi Calm Calm - N/A   Clear
5:53 PM 37.0 °F - 18.0 °F 46% 30.19 in 10.0 mi Calm Calm - N/A   Clear
6:53 PM 34.0 °F - 18.0 °F 52% 30.21 in 10.0 mi Calm Calm - N/A   Clear
7:53 PM 30.0 °F 26.5 °F 17.1 °F 59% 30.23 in 10.0 mi South 3.5 mph - N/A   Clear
8:53 PM 28.9 °F 25.2 °F 17.1 °F 61% 30.22 in 10.0 mi SSW 3.5 mph - N/A   Clear
9:53 PM 28.0 °F 24.2 °F 17.1 °F 63% 30.19 in 10.0 mi SSW 3.5 mph - N/A   Clear
10:53 PM 27.0 °F - 17.1 °F 66% 30.17 in 10.0 mi Calm Calm - N/A   Clear
11:53 PM 25.0 °F - 16.0 °F 69% 30.14 in 10.0 mi Calm Calm - N/A   Clear